User: anonymous   Login
Location: Gensac
(43.2177°N, 1.1313°E)
Time: 21:55:56
(UTC+00:00)
Language:

Meteor 2-3 Rocket - Orbit

View from above orbital plane
View from above orbital plane
View from above satellite
View from above satellite

Ground track
Ground track

The orbit is defined by the following mean orbital elements,

1 10515U          26037.63322800 +.00000000 +00000-0 -20095-4 0 00008
2 10515  81.2418  92.3189 0026733 344.3689  15.6653 14.09095428    06
Epoch (UTC): 06 February 2026 15:11:50
Eccentricity: 0.0026733
inclination: 81.2418°
perigee height: 843 km
apogee height: 882 km
right ascension of ascending node: 92.3189°
argument of perigee: 344.3689°
revolutions per day: 14.09095428
mean anomaly at epoch: 15.6653°

The dashed part of the orbit path shows where the satellite is in the earth's shadow,  

DLR